Location: Bishop�s Knoyle
(51.0728°N, 2.1714°W)
Time: 13:53:51
(UTC+00:00)

Cosmos 2082 Rocket - Pass Details

Date: 18 September 2020
Orbit: 834 x 853 km, 71.0° (Epoch: 25 October)

Event Time Altitude Azimuth Distance (km) Brightness Sun altitude
Rises 22:21:48 0° 328° (NNW) 3,394 6.4 -33.3°
Reaches altitude 10° 22:24:16 10° 325° (NW) 2,456 5.4 -33.5°
Enters shadow 22:28:07 42° 304° (WNW) 1,176 3.2 -33.8°
